Hourly Data Report for April 27, 2016

All times are specified in Local Standard Time (LST). Add 1 hour to adjust for Daylight Saving Time where and when it is observed.

EMERSON AUTO
MANITOBA

49°00'00.000" N
97°14'15.000" W
242.00 m
5020881
71560
WEX

Download Data

Hourly Data (April 2016)
Hourly Data Report for April 27, 2016
Temp Definition
°C
Dew Point Temp Definition
°C
Rel Hum Definition
%
Wind Dir Definition
10's deg

Wind Spd Definition
km/h
Visibility Definition
km
Stn Press Definition
kPa
Hmdx Definition


Wind Chill Definition


Weather Definition


TIME
00:00 7.7 -4.3 43 8 13   98.90     LegendNANA
01:00 7.2 -4.4 44 8 12   98.87     LegendNANA
02:00 5.7 -2.9 54 7 12   98.91     LegendNANA
03:00 5.6 -3.0 54 9 10   99.01     LegendNANA
04:00 5.3 -3.1 55 9 12   98.98     LegendNANA
05:00 4.7 -2.8 58 10 11   99.00     LegendNANA
06:00 4.1 -2.2 63 11 11   99.07     LegendNANA
07:00 5.1 -1.7 61 11 13   99.05     LegendNANA
08:00 7.4 -3.5 46 11 12   99.05     LegendNANA
09:00 9.2 -4.2 38 10 15   99.06     LegendNANA
10:00 10.5 -4.6 34 11 17   99.05     LegendNANA
11:00 11.0 -5.2 32 8 18   99.01     LegendNANA
12:00 11.7 -5.0 31 8 18   98.98     LegendNANA
13:00 13.7 -3.8 29 8 19   98.92     LegendNANA
14:00 13.4 -5.3 27 7 22   98.92     LegendNANA
15:00 14.4 -3.9 28 6 22   98.86     LegendNANA
16:00 13.9 -4.5 28 6 25   98.81     LegendNANA
17:00 13.9 -4.9 27 6 23   98.83     LegendNANA
18:00 12.8 -4.9 29 6 24   98.83     LegendNANA
19:00 11.6 -3.8 34 6 19   98.84     LegendNANA
20:00 9.7 -2.9 41 7 13   98.90     LegendNANA
21:00 8.5 -3.8 41 7 12   98.99     LegendNANA
22:00 8.5 -5.6 37 6 14   99.04     LegendNANA
23:00 5.4 -2.4 57 4 11   99.06     LegendNANA

Notes on Data Quality.

Legend

  • E = Estimated
  • M = Missing
  • NA = Not Available
  • ‡ = Partner data that is not subject to review by the National Climate Archives
Date modified: